OVERFALLS Weather Reports


Display with metric or nautical units.
time (UTC)temp
F
wind
direction
speed
MPH
gust
MPH
rain 1hr
in
rain 24hr
in
rain mn
in
humidity
%
barometer
mb
20260904223110 83 306 1.0 4.0 0.00 0.50 0.50 73 1012.4
20260904221558 84 318 1.0 4.0 0.00 0.50 0.50 72 1012.4
20260904220055 84 318 0.0 3.0 0.00 0.50 0.50 70 1012.3
20260904214552 85 0 0.0 3.0 0.00 0.50 0.50 69 1012.2
20260904213055 86 350 0.0 2.0 0.00 0.50 0.50 68 1011.9
20260904211552 85 0 0.0 3.0 0.00 0.50 0.50 68 1012.0
20260904210101 84 350 0.0 5.0 0.00 0.50 0.50 70 1012.2
20260904204559 83 351 1.0 5.0 0.00 0.50 0.50 71 1012.2
20260904203102 83 355 2.0 7.0 0.00 0.50 0.50 73 1012.1
20260904201550 83 5 3.0 6.0 0.00 0.50 0.50 71 1012.1
20260904200054 84 14 4.0 7.0 0.00 0.50 0.50 69 1012.4
20260904194556 84 40 2.0 5.0 0.00 0.50 0.50 69 1012.5
20260904193112 83 5 3.0 5.0 0.00 0.50 0.50 70 1012.6
20260904191556 83 360 3.0 8.0 0.00 0.50 0.50 71 1012.4
20260904190049 83 40 4.0 8.0 0.00 0.50 0.50 71 1012.6
20260904184556 82 55 4.0 9.0 0.00 0.50 0.50 74 1012.9
20260904183053 82 36 3.0 7.0 0.00 0.50 0.50 73 1012.8
20260904181551 82 63 4.0 8.0 0.00 0.50 0.50 73 1012.9
20260904174553 84 26 3.0 8.0 0.00 0.50 0.50 72 1013.1
20260904173107 83 5 5.0 9.0 0.00 0.50 0.50 72 1013.1
20260904171555 84 13 3.0 8.0 0.00 0.50 0.50 71 1013.2
20260904170058 83 333 4.0 9.0 0.00 0.50 0.50 75 1013.2
20260904164553 84 340 4.0 8.0 0.00 0.50 0.50 73 1013.4
20260904163052 85 344 4.0 8.0 0.00 0.50 0.50 72 1013.5
20260904161609 85 21 3.0 10.0 0.00 0.50 0.50 71 1013.7
20260904160100 85 321 3.0 10.0 0.00 0.50 0.50 71 1013.6
20260904154552 85 344 6.0 11.0 0.00 0.50 0.50 70 1013.5
20260904153102 84 262 4.0 11.0 0.00 0.50 0.50 72 1013.5
20260904151558 84 259 4.0 11.0 0.00 0.50 0.50 72 1013.6
20260904150054 83 281 6.0 13.0 0.00 0.50 0.50 73 1013.4
20260904144607 83 351 6.0 14.0 0.00 0.50 0.50 73 1013.6
20260904143058 82 266 6.0 15.0 0.00 0.50 0.50 75 1013.6
20260904141559 82 202 4.0 12.0 0.00 0.50 0.50 76 1013.8
20260904140055 82 283 3.0 12.0 0.00 0.50 0.50 78 1013.5
20260904134555 80 298 5.0 14.0 0.00 0.50 0.50 80 1013.3
20260904133105 79 281 7.0 16.0 0.00 0.50 0.50 82 1013.6
20260904131556 78 249 6.0 14.0 0.00 0.50 0.50 86 1013.7
20260904130057 77 269 8.0 16.0 0.00 0.50 0.50 88 1013.4
20260904124602 76 265 10.0 16.0 0.00 0.50 0.50 92 1013.3
20260904123056 74 263 7.0 11.0 0.00 0.50 0.50 94 1013.3
20260904121553 74 277 6.0 14.0 0.00 0.50 0.50 95 1013.3
20260904120056 73 259 7.0 12.0 0.00 0.50 0.50 96 1013.3
20260904114557 74 273 9.0 15.0 0.00 0.50 0.50 96 1013.2
20260904113054 73 261 9.0 14.0 0.00 0.50 0.50 97 1013.3
20260904111553 72 269 6.0 11.0 0.00 0.50 0.50 96 1013.2
20260904110050 72 269 6.0 12.0 0.00 0.50 0.50 97 1013.1
20260904104555 72 258 5.0 11.0 0.00 0.50 0.50 96 1012.8
20260904103054 72 267 5.0 12.0 0.00 0.50 0.50 96 1012.6
20260904101554 72 220 5.0 10.0 0.00 0.50 0.50 96 1012.5
20260904100056 72 240 5.0 10.0 0.00 0.50 0.50 97 1012.7
20260904094556 72 258 4.0 8.0 0.00 0.50 0.50 96 1012.8
20260904093055 72 254 2.0 7.0 0.00 0.50 0.50 96 1012.9
20260904091557 72 221 3.0 8.0 0.00 0.50 0.50 96 1012.8
20260904090049 72 242 4.0 8.0 0.00 0.50 0.50 96 1012.8
20260904084602 72 251 3.0 8.0 0.00 0.51 0.50 96 1012.7
20260904083056 72 252 2.0 10.0 0.00 0.51 0.50 96 1012.9
20260904081551 72 257 4.0 9.0 0.00 0.51 0.50 96 1013.3
20260904080059 72 240 2.0 10.0 0.03 0.51 0.50 96 1013.4
20260904074605 72 227 2.0 8.0 0.07 0.51 0.50 96 1013.4
20260904073054 72 235 4.0 12.0 0.11 0.51 0.50 96 1013.6
20260904071622 72 205 4.0 9.0 0.15 0.50 0.49 95 1013.7
20260904070101 72 236 3.0 10.0 0.19 0.48 0.47 95 1013.9
20260904064606 72 217 4.0 10.0 0.42 0.43 0.42 95 1014.3
20260904063056 73 233 4.0 12.0 0.38 0.39 0.38 94 1014.6
20260904061551 73 214 9.0 26.0 0.33 0.34 0.33 94 1015.4
20260904060100 74 271 17.0 45.0 0.27 0.28 0.27 91 1014.7
20260904054556 79 248 16.0 34.0 0.00 0.00 0.00 90 1014.5
20260904053102 80 222 3.0 7.0 0.00 0.00 0.00 93 1013.1
20260904051552 79 204 2.0 7.0 0.00 0.00 0.00 93 1013.1
20260904050056 79 226 1.0 5.0 0.00 0.00 0.00 93 1013.2
20260904044601 79 226 1.0 4.0 0.00 0.00 0.00 92 1013.6
20260904043054 79 226 0.0 3.0 0.00 0.00 0.00 92 1013.5
20260904041602 79 226 0.0 3.0 0.00 0.00 0.00 92 1013.3
20260904040054 80 0 1.0 4.0 0.00 0.00 0.00 92 1013.7
20260904034551 80 0 1.0 4.0 0.00 0.00 0.00 91 1014.1
20260904033057 80 226 1.0 3.0 0.00 0.00 0.00 91 1014.3
20260904031605 80 226 1.0 3.0 0.00 0.00 0.00 90 1014.4
20260904030055 80 0 0.0 3.0 0.00 0.00 0.00 89 1014.3
20260904024553 80 226 0.0 4.0 0.00 0.00 0.00 89 1014.3
20260904023050 81 226 0.0 2.0 0.00 0.00 0.00 89 1014.1
20260904021555 81 0 0.0 2.0 0.00 0.00 0.00 88 1014.1
20260904020051 81 0 0.0 2.0 0.00 0.00 0.00 88 1014.3
20260904014551 81 226 0.0 2.0 0.00 0.00 0.00 87 1014.5
20260904013104 82 0 0.0 2.0 0.00 0.00 0.00 86 1014.7
20260904011554 82 226 0.0 2.0 0.00 0.00 0.00 86 1015.0
20260904010100 82 0 0.0 2.0 0.00 0.00 0.00 85 1014.8
20260904004559 83 0 1.0 4.0 0.00 0.00 0.00 85 1014.9
20260904003053 83 226 0.0 4.0 0.00 0.00 0.00 84 1014.6
20260904001549 83 226 1.0 4.0 0.00 0.00 0.00 83 1014.5
20260904000051 84 226 1.0 4.0 0.00 0.00 0.00 82 1014.1
20260903234555 84 226 1.0 5.0 0.00 0.00 0.00 80 1013.8
20260903233054 85 257 2.0 6.0 0.00 0.00 0.00 77 1014.0
20260903231555 86 257 1.0 4.0 0.00 0.00 0.00 73 1013.9
20260903224554 87 252 1.0 4.0 0.00 0.00 0.00 70 1013.9